EW4942 Weather Reports


time (UTC)temp
C
wind
direction
speed
KPH
gust
KPH
rain 1hr
cm
rain 24hr
cm
rain mn
cm
humidity
%
barometer
mb
20260506121516 7 133 0.0 0.0 0.00 0.00 0.00 94 1017.3
20260506120019 7 133 0.0 0.0 0.00 0.00 0.00 94 1017.0
20260506114516 7 133 0.0 0.0 0.00 0.00 0.00 94 1016.9
20260506113011 7 133 0.0 0.0 0.00 0.00 0.00 94 1017.0
20260506111510 7 133 0.0 0.0 0.00 0.00 0.00 94 1016.9
20260506110008 7 133 0.0 0.0 0.00 0.00 0.00 94 1016.7
20260506104505 7 133 0.0 0.0 0.00 0.00 0.00 93 1016.5
20260506103003 7 133 0.0 0.0 0.00 0.00 0.00 93 1016.4
20260506101501 7 133 0.0 0.0 0.00 0.00 0.00 93 1016.3
20260506100120 8 133 0.0 0.0 0.00 0.00 0.00 93 1016.3
20260506094558 8 133 0.0 0.0 0.00 0.00 0.00 93 1016.1
20260506093054 8 133 0.0 0.0 0.00 0.00 0.00 93 1016.0
20260506091552 8 133 0.0 0.0 0.00 0.00 0.00 93 1015.7
20260506090049 8 133 0.0 0.0 0.00 0.00 0.00 93 1015.6
20260506084611 8 133 0.0 0.0 0.00 0.00 0.00 93 1015.5
20260506083046 8 133 0.0 0.0 0.00 0.00 0.00 92 1015.4
20260506081550 8 133 0.0 0.0 0.00 0.00 0.00 92 1015.3
20260506073044 9 133 0.0 0.0 0.00 0.00 0.00 92 1014.9
20260506071536 9 133 0.0 0.0 0.00 0.00 0.00 91 1014.8
20260506061528 10 133 0.0 0.0 0.00 0.00 0.00 90 1014.5
20260506044551 12 133 0.0 0.0 0.00 0.00 0.00 88 1014.1
20260506043025 13 133 0.0 0.0 0.00 0.00 0.00 87 1014.1
20260506041524 13 133 0.0 0.0 0.00 0.00 0.00 86 1014.0
20260506040025 14 133 0.0 0.0 0.00 0.00 0.00 84 1013.6
20260506034544 15 133 0.0 0.0 0.00 0.00 0.00 82 1013.5
20260506033022 15 133 0.0 0.0 0.00 0.00 0.00 81 1013.3
20260506031522 16 133 0.0 0.0 0.00 0.00 0.00 79 1013.1
20260506030021 17 133 0.0 0.0 0.00 0.00 0.00 77 1013.0
20260506024521 17 133 0.0 0.0 0.00 0.00 0.00 75 1013.0
20260506023020 18 112 0.0 0.0 0.00 0.00 0.00 73 1012.9
20260506021520 18 124 0.0 6.4 0.00 0.00 0.00 71 1013.0
20260506020019 19 116 0.0 6.4 0.00 0.00 0.00 70 1013.0
20260506014526 20 122 0.0 8.0 0.00 0.00 0.00 69 1013.0
20260506013017 20 132 0.0 8.0 0.00 0.00 0.00 67 1013.0
20260506011518 21 115 0.0 0.0 0.00 0.00 0.00 67 1013.1
20260506010015 21 114 1.6 6.4 0.00 0.00 0.00 65 1013.1
20260506004530 21 139 0.0 8.0 0.00 0.00 0.00 65 1013.0
20260506003022 21 139 0.0 9.7 0.00 0.00 0.00 64 1013.1
20260506001515 21 135 3.2 9.7 0.00 0.00 0.00 62 1013.2
20260506000012 22 131 0.0 11.3 0.00 0.00 0.00 63 1013.3
20260505234519 22 127 1.6 8.0 0.00 0.00 0.00 61 1013.4
20260505233012 22 162 0.0 9.7 0.00 0.00 0.00 64 1013.5
20260505231515 21 172 0.0 12.9 0.00 0.00 0.00 63 1013.5
20260505230012 21 114 3.2 12.9 0.00 0.00 0.00 63 1013.7
20260505224510 22 134 0.0 12.9 0.00 0.00 0.00 63 1013.7
20260505223008 22 75 1.6 11.3 0.00 0.00 0.00 62 1013.9
20260505221507 22 127 0.0 9.7 0.00 0.00 0.00 63 1014.1
20260505220018 22 300 1.6 12.9 0.00 0.00 0.00 62 1014.1
20260505214506 22 142 0.0 8.0 0.00 0.00 0.00 61 1014.1
20260505213005 22 162 1.6 9.7 0.00 0.00 0.00 61 1014.2
20260505211505 22 325 1.6 6.4 0.00 0.00 0.00 62 1014.3
20260505210003 22 172 0.0 9.7 0.00 0.00 0.00 63 1014.4
20260505204500 21 105 0.0 8.0 0.00 0.00 0.00 64 1014.5
20260505203059 21 6 0.0 9.7 0.00 0.00 0.00 65 1014.5
20260505201602 21 140 0.0 9.7 0.00 0.00 0.00 65 1014.6
20260505200103 21 30 0.0 6.4 0.00 0.00 0.00 64 1014.5
20260505194556 21 106 0.0 11.3 0.00 0.00 0.00 66 1014.6
20260505193058 20 142 3.2 11.3 0.00 0.00 0.00 67 1014.5
20260505191559 21 107 0.0 3.2 0.00 0.00 0.00 67 1014.5
20260505190052 20 153 3.2 11.3 0.00 0.00 0.00 66 1014.5
20260505184553 20 124 0.0 8.0 0.00 0.00 0.00 67 1014.5
20260505183048 19 339 0.0 8.0 0.00 0.00 0.00 71 1014.5
20260505181545 19 212 3.2 11.3 0.00 0.00 0.00 71 1014.5
20260505180052 18 133 1.6 9.7 0.00 0.00 0.00 71 1014.5
20260505174600 18 155 0.0 4.8 0.00 0.00 0.00 75 1014.5
20260505173039 18 117 3.2 9.7 0.00 0.00 0.00 75 1014.4
20260505171536 17 139 0.0 11.3 0.00 0.00 0.00 76 1014.5
20260505170036 17 147 0.0 6.4 0.00 0.00 0.00 78 1014.4
20260505164530 16 125 0.0 8.0 0.00 0.00 0.00 79 1014.4
20260505163028 16 150 0.0 4.8 0.00 0.00 0.00 81 1014.3
20260505161524 16 151 1.6 6.4 0.00 0.00 0.00 81 1014.3
20260505153017 13 139 0.0 8.0 0.00 0.00 0.00 87 1014.1
20260505151509 12 113 0.0 4.8 0.00 0.00 0.00 89 1013.9
20260505124553 8 165 0.0 0.0 0.00 0.00 0.00 90 1012.5
20260505123108 8 165 0.0 0.0 0.00 0.00 0.00 90 1012.2